Location: Kellogg
(38.0159°N, 90.0546°W)
Time: 21:37:04
(UTC+00:00)

Vanguard 1 - Pass Details

Date: 13 September 2024
Orbit: 648 x 3825 km, 34.3° (Epoch: 12 October)

Event Time Altitude Azimuth Distance (km) Brightness Sun altitude
Rises 19:14:26 0° 244° (WSW) 5,936 14.5 51.0°
Reaches altitude 10° 19:19:10 10° 241° (WSW) 4,399 14.1 50.5°
Maximum altitude 19:29:23 53° 169° (SSE) 1,474 12.2 49.3°
Drops below altitude 10° 19:35:12 10° 93° (E) 2,558 12.1 48.6°
Sets 19:37:16 0° 88° (E) 3,307 12.5 48.3°
